Index of /music0/Various Artists/VA - Kink1500 (2024) (501-1000) -/VA - Kink1500 (2024) (1001-1500)

[ICO]NameLast modifiedSizeDescription

[PARENTDIR]Parent Directory  -  
[DIR]yEncBin_Temp0001/2024-11-11 04:23 -  
[SND]1001 - The Kooks - Naive.mp32024-11-09 10:08 8.2M 
[SND]1002 - Stromae - L’enfer.mp32024-11-09 10:08 7.7M 
[SND]1003 - Bloodhound Gang - Fire Water Burn.mp32024-11-09 10:08 12M 
[SND]1004 - INXS - Never Tear Us Apart.mp32024-11-09 10:08 7.7M 
[SND]1005 - The Killers - Jenny Was A Friend Of Mine.mp32024-11-09 10:08 9.9M 
[SND]1006 - Oasis - Cigarettes & Alcohol - Remastered.mp32024-11-09 10:08 12M 
[SND]1007 - Gorillaz - 19-2000 - Soulchild Remix.mp32024-11-09 10:08 8.4M 
[SND]1008 - Tom Petty and the Heartbreakers - Into The Great Wide Open.mp32024-11-09 10:08 9.6M 
[SND]1009 - Thirty Seconds To Mars - A Beautiful Lie.mp32024-11-09 10:08 9.7M 
[SND]1010 - David Bowie - Rebel Rebel - 2016 Remaster.mp32024-11-09 10:08 11M 
[SND]1011 - Biffy Clyro - North of No South.mp32024-11-09 10:08 9.8M 
[SND]1012 - Faith No More - Ashes to Ashes.mp32024-11-09 10:08 8.6M 
[SND]1013 - Snow Patrol - Just Say Yes.mp32024-11-09 10:08 11M 
[SND]1014 - dEUS - Little Arithmetics.mp32024-11-09 10:08 11M 
[SND]1015 - Paramore - Ain't It Fun.mp32024-11-09 10:08 12M 
[SND]1016 - The Charlatans - The Only One I Know.mp32024-11-09 10:08 10M 
[SND]1017 - Placebo - For What It's Worth.mp32024-11-09 10:08 6.7M 
[SND]1018 - Radiohead - High and Dry.mp32024-11-09 10:08 10M 
[SND]1019 - TAPE TOY - Dive Deeper.mp32024-11-09 10:08 9.3M 
[SND]1020 - Jeff Buckley - Hallelujah.mp32024-11-09 10:08 17M 
[SND]1021 - Golden Earring - When The Lady Smiles.mp32024-11-09 10:08 14M 
[SND]1022 - Kasabian - L.S.F..mp32024-11-09 10:08 7.6M 
[SND]1023 - Opgezwolle - HoedenPlank.mp32024-11-09 10:08 7.9M 
[SND]1024 - Pearl Jam - Oceans.mp32024-11-09 10:08 7.2M 
[SND]1025 - Triggerfinger - I Follow Rivers - Bonus Track - Live @ Giel Vara3fm.mp32024-11-09 10:08 8.7M 
[SND]1026 - Matchbox Twenty - Push.mp32024-11-09 10:08 9.8M 
[SND]1027 - Royal Blood - Limbo.mp32024-11-09 10:08 12M 
[SND]1028 - Bruce Springsteen - I'm On Fire.mp32024-11-09 10:08 6.6M 
[SND]1029 - Guano Apes - Big in Japan.mp32024-11-09 10:08 7.4M 
[SND]1030 - Beastie Boys - Sure Shot.mp32024-11-09 10:08 8.6M 
[SND]1031 - Foo Fighters - The Sky Is A Neighborhood.mp32024-11-09 10:08 9.9M 
[SND]1032 - The Cure - Lovesong - Remastered.mp32024-11-09 10:08 8.6M 
[SND]1033 - Muse - Will Of The People.mp32024-11-09 10:08 8.6M 
[SND]1034 - Blur - Beetlebum - 2012 Remaster.mp32024-11-09 10:08 13M 
[SND]1035 - Van Halen - Ain't Talkin' 'Bout Love - 2015 Remaster.mp32024-11-09 10:08 9.2M 
[SND]1036 - The Last Shadow Puppets - Standing Next To Me.mp32024-11-09 10:08 5.8M 
[SND]1037 - Limp Bizkit - Rollin' (Air Raid Vehicle).mp32024-11-09 10:08 8.7M 
[SND]1038 - Cracker - Low.mp32024-11-09 10:08 12M 
[SND]1039 - Two Door Cinema Club - Something Good Can Work.mp32024-11-09 10:08 6.9M 
[SND]1040 - The Jayhawks - Take Me With You (When You Go).mp32024-11-09 10:08 12M 
[SND]1041 - Incubus - Anna Molly.mp32024-11-09 10:08 9.6M 
[SND]1042 - Fun Lovin' Criminals - The Fun Lovin' Criminal.mp32024-11-09 10:08 7.9M 
[SND]1043 - Florence + The Machine - Hunger.mp32024-11-09 10:08 8.8M 
[SND]1044 - Bloc Party - Helicopter.mp32024-11-09 10:08 8.6M 
[SND]1045 - Kraftwerk - The Model - 2009 Remaster.mp32024-11-09 10:08 8.6M 
[SND]1046 - K's Choice - Dad.mp32024-11-09 10:08 7.8M 
[SND]1047 - Franz Ferdinand - Do You Want To.mp32024-11-09 10:08 8.6M 
[SND]1048 - Tonic - If You Could Only See.mp32024-11-09 10:08 11M 
[SND]1049 - The Stranglers - No More Heroes - 1996 Remaster.mp32024-11-09 10:08 8.9M 
[SND]1050 - The Vices - Before Your Birth.mp32024-11-09 10:08 9.4M 
[SND]1051 - Tim Knol - Sam.mp32024-11-09 10:08 8.4M 
[SND]1052 - Cypress Hill - (Rock) Superstar (feat. Chino Moreno & Everlast).mp32024-11-09 10:08 11M 
[SND]1053 - Editors - Bones.mp32024-11-09 10:08 10M 
[SND]1054 - Hole - Celebrity Skin.mp32024-11-09 10:08 6.5M 
[SND]1055 - The Roots - The Seed (2.0).mp32024-11-09 10:08 11M 
[SND]1056 - Bear's Den - Above the Clouds of Pompeii.mp32024-11-09 10:08 12M 
[SND]1057 - Nirvana - Love Buzz.mp32024-11-09 10:08 8.8M 
[SND]1058 - Beck - Sexx Laws.mp32024-11-09 10:08 9.3M 
[SND]1059 - Alphaville - Forever Young.mp32024-11-09 10:08 9.3M 
[SND]1060 - Arctic Monkeys - Four Out Of Five.mp32024-11-09 10:08 12M 
[SND]1061 - Live - Shit Towne.mp32024-11-09 10:08 9.4M 
[SND]1062 - Public Enemy - Fight The Power.mp32024-11-09 10:08 12M 
[SND]1063 - Chef'Special - In Your Arms.mp32024-11-09 10:08 8.3M 
[SND]1064 - Pixies - Gigantic - 2007 Remaster.mp32024-11-09 10:08 9.4M 
[SND]1065 - Alanis Morissette - That I Would Be Good.mp32024-11-09 10:08 11M 
[SND]1066 - Eagles Of Death Metal - I Only Want You.mp32024-11-09 10:08 6.7M 
[SND]1067 - Sam Fender - Getting Started.mp32024-11-09 10:08 8.0M 
[SND]1068 - Electric Light Orchestra - Mr. Blue Sky.mp32024-11-09 10:08 12M 
[SND]1069 - Sports Team - M5.mp32024-11-09 10:08 9.1M 
[SND]1070 - Suede - Animal Nitrate.mp32024-11-09 10:08 8.2M 
[SND]1071 - Amy Winehouse - Rehab.mp32024-11-09 10:08 8.8M 
[SND]1072 - Metallica - St. Anger.mp32024-11-09 10:08 18M 
[SND]1073 - The Clash - The Magnificent Seven - Remastered.mp32024-11-09 10:08 13M 
[SND]1074 - Pulp - Disco 2000.mp32024-11-09 10:08 11M 
[SND]1075 - Ramones - I Wanna Be Sedated.mp32024-11-09 10:08 6.2M 
[SND]1076 - Imagine Dragons - Whatever It Takes.mp32024-11-09 10:08 8.1M 
[SND]1077 - Therapy - Die Laughing.mp32024-11-09 10:08 7.1M 
[SND]1078 - Lenny Kravitz - Let Love Rule.mp32024-11-09 10:08 14M 
[SND]1079 - The Hives - Tick Tick Boom.mp32024-11-09 10:08 8.3M 
[SND]1080 - Everlast - What It's Like.mp32024-11-09 10:08 12M 
[SND]1081 - Iggy Pop - Candy.mp32024-11-09 10:08 11M 
[SND]1082 - TOOL - Vicarious.mp32024-11-09 10:08 17M 
[SND]1083 - Arcade Fire - Unconditional I (Lookout Kid).mp32024-11-09 10:08 11M 
[SND]1084 - The xx - Islands.mp32024-11-09 10:08 6.2M 
[SND]1085 - Beastie Boys - Body Movin' - Fatboy Slim RemixRemastered 2009.mp32024-11-09 10:08 14M 
[SND]1086 - Ben Howard - I Forget Where We Were.mp32024-11-09 10:08 11M 
[SND]1087 - L7 - Pretend We're Dead.mp32024-11-09 10:08 9.9M 
[SND]1088 - Moloko - The Time Is Now.mp32024-11-09 10:08 13M 
[SND]1089 - De Staat - Tie Me Down (feat. Luwten).mp32024-11-09 10:08 11M 
[SND]1090 - Mazzy Star - Fade Into You.mp32024-11-09 10:08 12M 
[SND]1091 - P.O.D. - Youth of the Nation.mp32024-11-09 10:08 11M 
[SND]1092 - David Bowie - Rock 'n' Roll Suicide - 2012 Remaster.mp32024-11-09 10:08 7.6M 
[SND]1093 - The Cardigans - Erase Rewind.mp32024-11-09 10:08 8.9M 
[SND]1094 - Kings of Leon - Molly's Chambers.mp32024-11-09 10:08 5.2M 
[SND]1095 - The Black Keys - Tighten Up.mp32024-11-09 10:08 8.5M 
[SND]1096 - The Cult - Love Removal Machine.mp32024-11-09 10:08 11M 
[SND]1097 - The Killers - Read My Mind.mp32024-11-09 10:08 10M 
[SND]1098 - The Prodigy - Voodoo People.mp32024-11-09 10:08 15M 
[SND]1099 - beabadoobee - Last Day On Earth.mp32024-11-09 10:08 9.5M 
[SND]1100 - A Flock Of Seagulls - Wishing (If I Had a Photograph of You).mp32024-11-09 10:08 13M 
[SND]1101 - The Strokes - Hard To Explain.mp32024-11-09 10:08 8.9M 
[SND]1102 - Osdorp Posse - De Goeie In Het Vloeien.mp32024-11-09 10:08 10M 
[SND]1103 - Go Back To The Zoo - Electric.mp32024-11-09 10:08 7.9M 
[SND]1104 - Prince - Sign 'O' the Times.mp32024-11-09 10:08 12M 
[SND]1105 - Muse - Resistance.mp32024-11-09 10:08 14M 
[SND]1106 - Foals - 2am.mp32024-11-09 10:08 8.8M 
[SND]1107 - Nine Inch Nails - The Perfect Drug.mp32024-11-09 10:08 13M 
[SND]1108 - The Police - So Lonely.mp32024-11-09 10:08 12M 
[SND]1109 - Tröckener Kecks - Niemand Thuis.mp32024-11-09 10:08 10M 
[SND]1110 - Creed - Higher.mp32024-11-09 10:08 13M 
[SND]1111 - Bob Dylan - Hurricane.mp32024-11-09 10:08 20M 
[SND]1112 - Alanis Morissette - Joining You.mp32024-11-09 10:08 11M 
[SND]1113 - M83 - Reunion.mp32024-11-09 10:08 9.9M 
[SND]1114 - Fountains Of Wayne - Stacy's Mom.mp32024-11-09 10:08 7.8M 
[SND]1115 - Nirvana - About A Girl.mp32024-11-09 10:08 7.0M 
[SND]1116 - Moke - Here Comes the Summer.mp32024-11-09 10:08 9.4M 
[SND]1117 - The Vaccines - Headphones Baby.mp32024-11-09 10:08 7.8M 
[SND]1118 - Inhaler - It Won't Always Be Like This.mp32024-11-09 10:08 10M 
[SND]1119 - Stiltskin - Inside.mp32024-11-09 10:08 6.1M 
[SND]1120 - Depeche Mode - Policy of Truth.mp32024-11-09 10:08 11M 
[SND]1121 - Starsailor - Alcoholic.mp32024-11-09 10:08 7.3M 
[SND]1122 - The Presidents Of The United States Of America - Lump.mp32024-11-09 10:08 6.0M 
[SND]1123 - LP - Lost on You.mp32024-11-09 10:08 10M 
[SND]1124 - Van Halen - Hot for Teacher - 2015 Remaster.mp32024-11-09 10:08 12M 
[SND]1125 - Tori Amos - Silent All These Years - 2015 Remaster.mp32024-11-09 10:08 9.7M 
[SND]1126 - Kasabian - Underdog.mp32024-11-09 10:08 11M 
[SND]1127 - The Chemical Brothers - Block Rockin' Beats.mp32024-11-09 10:08 12M 
[SND]1128 - Buzzcocks - Ever Fallen in Love (With Someone You Shouldn't've) - 1996 Remastered Version.mp32024-11-09 10:08 6.6M 
[SND]1129 - Snow Patrol - Crack The Shutters.mp32024-11-09 10:08 8.0M 
[SND]1130 - Bush - Swallowed - Remastered.mp32024-11-09 10:08 12M 
[SND]1131 - White Lies - As I Try Not To Fall Apart.mp32024-11-09 10:08 12M 
[SND]1132 - Maximo Park - Apply Some Pressure.mp32024-11-09 10:08 7.9M 
[SND]1133 - Guns N' Roses - Patience.mp32024-11-09 10:08 14M 
[SND]1134 - The Offspring - Bad Habit.mp32024-11-09 10:08 9.3M 
[SND]1135 - This Mortal Coil - You And Your Sister - Remastered.mp32024-11-09 10:08 7.8M 
[SND]1136 - Young the Giant - Cough Syrup.mp32024-11-09 10:08 10M 
[SND]1137 - Death Cab for Cutie - Soul Meets Body.mp32024-11-09 10:08 9.3M 
[SND]1138 - zebrahead - Playmate of the Year.mp32024-11-09 10:08 7.6M 
[SND]1139 - Elephant - Calling.mp32024-11-09 10:08 8.6M 
[SND]1140 - The Kinks - You Really Got Me.mp32024-11-09 10:08 5.7M 
[SND]1141 - Björk - Hyper-ballad.mp32024-11-09 10:08 13M 
[SND]1142 - The Dandy Warhols - Bohemian Like You.mp32024-11-09 10:08 9.1M 
[SND]1143 - Foster The People - Pumped Up Kicks.mp32024-11-09 10:08 9.6M 
[SND]1144 - Kristin Hersh - Your Ghost.mp32024-11-09 10:08 8.4M 
[SND]1145 - Red Hot Chili Peppers - By the Way.mp32024-11-09 10:08 9.1M 
[SND]1146 - Son Mieux - Drive.mp32024-11-09 10:08 8.6M 
[SND]1147 - Manic Street Preachers - You Stole the Sun from My Heart.mp32024-11-09 10:08 11M 
[SND]1148 - Counting Crows - Mr. Jones.mp32024-11-09 10:08 11M 
[SND]1149 - Justice - We Are Your Friends - Justice Vs Simian.mp32024-11-09 10:08 10M 
[SND]1150 - Soundgarden - Rusty Cage - Remastered 2016.mp32024-11-09 10:08 11M 
[SND]1151 - Florence + The Machine - You've Got The Love.mp32024-11-09 10:08 7.1M 
[SND]1152 - Ramones - Sheena Is a Punk Rocker - 2017 Remaster.mp32024-11-09 10:08 7.0M 
[SND]1153 - Twenty One Pilots - Stressed Out.mp32024-11-09 10:08 8.0M 
[SND]1154 - Stone Temple Pilots - Creep.mp32024-11-09 10:08 13M 
[SND]1155 - Stereophonics - Mr. Writer.mp32024-11-09 10:08 13M 
[SND]1156 - Cornershop - Brimful of Asha - Norman Cook Remix Single Version.mp32024-11-09 10:08 10M 
[SND]1157 - Audioslave - Doesn't Remind Me.mp32024-11-09 10:08 10M 
[SND]1158 - Paul Weller - You Do Something To Me.mp32024-11-09 10:08 9.3M 
[SND]1159 - Biffy Clyro - Tiny Indoor Fireworks.mp32024-11-09 10:08 7.9M 
[SND]1160 - Blondie - Call Me.mp32024-11-09 10:08 8.8M 
[SND]1161 - DJ Shadow - Midnight In A Perfect World.mp32024-11-09 10:08 12M 
[SND]1162 - Travis - Sing.mp32024-11-09 10:08 9.9M 
[SND]1163 - Sam Fender - Get You Down.mp32024-11-09 10:08 11M 
[SND]1164 - Herman Brood & His Wild Romance - I Love You Like I Love Myself.mp32024-11-09 10:08 9.2M 
[SND]1165 - Razorlight - In The Morning.mp32024-11-09 10:08 8.7M 
[SND]1166 - Filter - Hey Man Nice Shot.mp32024-11-09 10:08 13M 
[SND]1167 - Tame Impala - Is It True.mp32024-11-09 10:08 9.8M 
[SND]1168 - Placebo - Meds.mp32024-11-09 10:08 7.2M 
[SND]1169 - Pink Floyd - Another Brick in the Wall, Pt. 1.mp32024-11-09 10:08 7.6M 
[SND]1170 - Gotcha! - Words And Music From Da Lowlands.mp32024-11-09 10:08 17M 
[SND]1171 - Mumford & Sons - Believe.mp32024-11-09 10:08 8.9M 
[SND]1172 - Pixies - Here Comes Your Man.mp32024-11-09 10:08 8.6M 
[SND]1173 - Coldplay - Shiver.mp32024-11-09 10:08 12M 
[SND]1174 - Oasis - Rock 'n' Roll Star - Remastered.mp32024-11-09 10:08 13M 
[SND]1175 - Sheryl Crow - If It Makes You Happy.mp32024-11-09 10:08 13M 
[SND]1176 - Royal Blood - How Did We Get So Dark.mp32024-11-09 10:08 7.6M 
[SND]1177 - Athlete - Wires.mp32024-11-09 10:08 11M 
[SND]1178 - Live - Selling The Drama.mp32024-11-09 10:08 8.6M 
[SND]1179 - EUT - It's Love (But It's Not Mine).mp32024-11-09 10:08 9.4M 
[SND]1180 - The Cure - Just Like Heaven.mp32024-11-09 10:08 8.7M 
[SND]1181 - Ian Brown - F.E.A.R..mp32024-11-09 10:08 11M 
[SND]1182 - Kula Shaker - Hush.mp32024-11-09 10:08 7.0M 
[SND]1183 - Queens of the Stone Age - If I Had a Tail.mp32024-11-09 10:08 11M 
[SND]1184 - Queen - Don't Stop Me Now - Remastered 2011.mp32024-11-09 10:08 8.3M 
[SND]1185 - Beastie Boys - So What'Cha Want - Remastered 2009.mp32024-11-09 10:08 8.7M 
[SND]1186 - Fall Out Boy - Sugar, We're Goin Down.mp32024-11-09 10:08 9.2M 
[SND]1187 - Solomon - Nobody Knows.mp32024-11-09 10:08 9.7M 
[SND]1188 - Jimi Hendrix - Purple Haze.mp32024-11-09 10:08 7.1M 
[SND]1189 - Spinvis - Smalfilm.mp32024-11-09 10:08 9.8M 
[SND]1190 - Pearl Jam - Dissident - Remastered.mp32024-11-09 10:08 8.8M 
[SND]1191 - Franz Ferdinand - Ulysses.mp32024-11-09 10:08 7.8M 
[SND]1192 - Daft Punk - Around the World.mp32024-11-09 10:08 17M 
[SND]1193 - Metallica - Turn The Page.mp32024-11-09 10:08 15M 
[SND]1194 - The Fratellis - Chelsea Dagger.mp32024-11-09 10:08 8.3M 
[SND]1195 - CHVRCHES - The Mother We Share.mp32024-11-09 10:08 8.0M 
[SND]1196 - The Doors - People Are Strange.mp32024-11-09 10:08 5.7M 
[SND]1197 - Incubus - Nice to Know You.mp32024-11-09 10:08 11M 
[SND]1198 - R.E.M. - Everybody Hurts.mp32024-11-09 10:08 13M 
[SND]1199 - TAPE TOY - Naive.mp32024-11-09 10:08 8.1M 
[SND]1200 - The Prodigy - Out of Space.mp32024-11-09 10:08 12M 
[SND]1201 - Staind - It's Been Awhile.mp32024-11-09 10:08 11M 
[SND]1202 - Fischer-Z - So Long.mp32024-11-09 10:08 12M 
[SND]1203 - The Naked And Famous - Young Blood.mp32024-11-09 10:08 10M 
[SND]1204 - Ash - Oh Yeah.mp32024-11-09 10:08 12M 
[SND]1205 - Kings of Leon - Use Somebody.mp32024-11-09 10:08 9.1M 
[SND]1206 - Garbage - Queer - 2015 - Remaster.mp32024-11-09 10:08 11M 
[SND]1207 - YUNGBLUD - I Love You, Will You Marry Me.mp32024-11-09 10:08 7.0M 
[SND]1208 - PJ Harvey - Down By The Water.mp32024-11-09 10:08 8.2M 
[SND]1209 - Muse - Feeling Good.mp32024-11-09 10:08 8.2M 
[SND]1210 - White Town - Your Woman.mp32024-11-09 10:08 11M 
[SND]1211 - The Black Keys - LoHi.mp32024-11-09 10:08 7.3M 
[SND]1212 - Lloyd Cole and the Commotions - Rattlesnakes.mp32024-11-09 10:08 8.6M 
[SND]1213 - Stereo MC's - Connected.mp32024-11-09 10:08 13M 
[SND]1214 - Electric Six - Danger! High Voltage - Soulchild Radio Mix.mp32024-11-09 10:08 8.7M 
[SND]1215 - The National - Day I Die.mp32024-11-09 10:08 11M 
[SND]1216 - Linkin Park - What I've Done.mp32024-11-09 10:08 8.0M 
[SND]1217 - The Smiths - Heaven Knows I'm Miserable Now - 2011 Remaster.mp32024-11-09 10:08 8.7M 
[SND]1218 - Reef - Place Your Hands.mp32024-11-09 10:08 9.0M 
[SND]1219 - James - Sit Down.mp32024-11-09 10:08 10M 
[SND]1220 - Balthazar - Entertainment.mp32024-11-09 10:08 7.7M 
[SND]1221 - Tom Petty and the Heartbreakers - Learning To Fly.mp32024-11-09 10:08 10M 
[SND]1222 - Cold War Kids - Hang Me Up to Dry.mp32024-11-09 10:08 8.9M 
[SND]1223 - Green Day - Working Class Hero.mp32024-11-09 10:08 10M 
[SND]1224 - The Scene - Open.mp32024-11-09 10:08 13M 
[SND]1225 - Half Moon Run - Full Circle.mp32024-11-09 10:08 7.8M 
[SND]1226 - The Cranberries - Animal Instinct.mp32024-11-09 10:08 8.9M 
[SND]1227 - The White Stripes - I Just Don't Know What to Do With Myself.mp32024-11-09 10:08 6.7M 
[SND]1228 - David Bowie - Sound and Vision - 2017 Remaster.mp32024-11-09 10:08 7.9M 
[SND]1229 - Personal Trainer - Rug Busters.mp32024-11-09 10:08 9.2M 
[SND]1230 - Weezer - Say It Ain't So - Original Mix.mp32024-11-09 10:08 10M 
[SND]1231 - Big Country - Look Away.mp32024-11-09 10:08 11M 
[SND]1232 - The War On Drugs - Lost In The Dream.mp32024-11-09 10:08 10M 
[SND]1233 - Red Hot Chili Peppers - Snow (Hey Oh).mp32024-11-09 10:08 14M 
[SND]1234 - HAIM - The Wire.mp32024-11-09 10:08 10M 
[SND]1235 - The Smashing Pumpkins - Ava Adore.mp32024-11-09 10:08 11M 
[SND]1236 - Eurythmics - Sweet Dreams (Are Made of This) - 2005 Remaster.mp32024-11-09 10:08 8.4M 
[SND]1237 - Three Days Grace - I Hate Everything About You.mp32024-11-09 10:08 9.7M 
[SND]1238 - Ugly Kid Joe - Cats In The Cradle.mp32024-11-09 10:08 10M 
[SND]1239 - De Staat - Make the Call, Leave It All.mp32024-11-09 10:08 11M 
[SND]1240 - Faith No More - Evidence.mp32024-11-09 10:08 12M 
[SND]1241 - Two Door Cinema Club - Undercover Martyn.mp32024-11-09 10:08 7.1M 
[SND]1242 - The Waterboys - A Girl Called Johnny - 2002 Remaster.mp32024-11-09 10:08 9.3M 
[SND]1243 - The Vices - Boy.mp32024-11-09 10:08 8.0M 
[SND]1244 - The Offspring - Why Don't You Get A Job.mp32024-11-09 10:08 7.2M 
[SND]1245 - Therapy - Stories.mp32024-11-09 10:08 7.8M 
[SND]1246 - U2 - I Still Haven't Found What I'm Looking For.mp32024-11-09 10:08 11M 
[SND]1247 - Blossoms - Charlemagne.mp32024-11-09 10:08 7.2M 
[SND]1248 - Radiohead - Just.mp32024-11-09 10:08 9.6M 
[SND]1249 - Keane - Bend & Break.mp32024-11-09 10:08 8.6M 
[SND]1250 - Editors - Vibe.mp32024-11-09 10:08 8.5M 
[SND]1251 - Wheatus - Teenage Dirtbag.mp32024-11-09 10:08 9.4M 
[SND]1252 - XTC - Making Plans For Nigel.mp32024-11-09 10:08 10M 
[SND]1253 - Voicst - Everyday I Work on the Road - Album Edit.mp32024-11-09 10:08 9.7M 
[SND]1254 - Butthole Surfers - Pepper.mp32024-11-09 10:08 12M 
[SND]1255 - Oasis - Lyla.mp32024-11-09 10:08 12M 
[SND]1256 - Midnight Oil - Beds Are Burning - Remastered.mp32024-11-09 10:08 10M 
[SND]1257 - Yeah Yeah Yeahs - Maps.mp32024-11-09 10:08 9.5M 
[SND]1258 - Kula Shaker - Govinda.mp32024-11-09 10:08 12M 
[SND]1259 - Franz Ferdinand - Billy Goodbye.mp32024-11-09 10:08 8.9M 
[SND]1260 - Joy Division - Transmission - The Factory, Manchester Live 11 April 1980.mp32024-11-09 10:08 8.9M 
[SND]1261 - Kaiser Chiefs - Ruby.mp32024-11-09 10:08 8.0M 
[SND]1262 - Björk - Play Dead - Tim Simenon 7 Remix.mp32024-11-09 10:08 9.7M 
[SND]1263 - The Undertones - Teenage Kicks.mp32024-11-09 10:08 6.4M 
[SND]1264 - Manic Street Preachers - The Everlasting.mp32024-11-09 10:08 15M 
[SND]1265 - MGMT - Electric Feel.mp32024-11-09 10:08 9.5M 
[SND]1266 - In Tua Nua - Seven Into The Sea - 2007 - Remaster.mp32024-11-09 10:08 9.3M 
[SND]1267 - Miles Kane - Don't Forget Who You Are.mp32024-11-09 10:08 8.3M 
[SND]1268 - Paul Weller - Wild Wood.mp32024-11-09 10:08 8.0M 
[SND]1269 - Bowling For Soup - 1985.mp32024-11-09 10:08 8.1M 
[SND]1270 - The Flaming Lips - Race for the Prize - 2017 Remaster.mp32024-11-09 10:08 10M 
[SND]1271 - The 1975 - It's Not Living (If It's Not With You).mp32024-11-09 10:08 9.6M 
[SND]1272 - blink-182 - The Rock Show.mp32024-11-09 10:08 6.7M 
[SND]1273 - Blur - Tender.mp32024-11-09 10:08 19M 
[SND]1274 - The xx - On Hold.mp32024-11-09 10:08 9.2M 
[SND]1275 - The Velvet Underground - Heroin.mp32024-11-09 10:08 17M 
[SND]1276 - The Kooks - She Moves In Her Own Way.mp32024-11-09 10:08 6.9M 
[SND]1277 - Urban Dance Squad - Routine - Remix.mp32024-11-09 10:08 12M 
[SND]1278 - The Pogues - Fiesta.mp32024-11-09 10:08 10M 
[SND]1279 - Foals - Wake Me Up.mp32024-11-09 10:08 10M 
[SND]1280 - Gorillaz - Dirty Harry.mp32024-11-09 10:08 9.1M 
[SND]1281 - Rollins Band - Liar.mp32024-11-09 10:08 6.0M 
[SND]1282 - Florence + The Machine - Moderation.mp32024-11-09 10:08 7.3M 
[SND]1283 - The Coral - Dreaming of You.mp32024-11-09 10:08 6.4M 
[SND]1284 - The Police - Message In A Bottle.mp32024-11-09 10:08 12M 
[SND]1285 - Rammstein - Wollt ihr das Bett in Flammen sehen.mp32024-11-09 10:08 13M 
[SND]1286 - Mumford & Sons - Lover Of The Light.mp32024-11-09 10:08 13M 
[SND]1287 - Infadels - Love Like Semtex.mp32024-11-09 10:08 9.6M 
[SND]1288 - World Party - Ship of Fools.mp32024-11-09 10:08 11M 
[SND]1289 - Eels - Beautiful Freak.mp32024-11-09 10:08 8.4M 
[SND]1290 - The Strokes - Brooklyn Bridge To Chorus.mp32024-11-09 10:08 10M 
[SND]1291 - The Beatles - Strawberry Fields Forever - Remastered 2009.mp32024-11-09 10:08 11M 
[SND]1292 - Yellowcard - Ocean Avenue.mp32024-11-09 10:08 8.3M 
[SND]1293 - The Verve - Sonnet.mp32024-11-09 10:08 11M 
[SND]1294 - Staygold - Wallpaper.mp32024-11-09 10:08 10M 
[SND]1295 - Lenny Kravitz - Always On The Run.mp32024-11-09 10:08 9.8M 
[SND]1296 - Starsailor - Four to the Floor.mp32024-11-09 10:08 9.3M 
[SND]1297 - Depeche Mode - I Feel You.mp32024-11-09 10:08 11M 
[SND]1298 - The Specials - Too Much Too Young - 2015 Remaster.mp32024-11-09 10:08 14M 
[SND]1299 - The Vaccines - Post Break-Up Sex.mp32024-11-09 10:08 6.9M 
[SND]1300 - Crash Test Dummies - Mmm Mmm Mmm Mmm.mp32024-11-09 10:08 10M 
[SND]1301 - Foo Fighters - Stacked Actors.mp32024-11-09 10:08 11M 
[SND]1302 - Mando Diao - Dance With Somebody.mp32024-11-09 10:08 13M 
[SND]1303 - Thomas Azier - Talk To Me.mp32024-11-09 10:08 9.4M 
[SND]1304 - The La's - There She Goes.mp32024-11-09 10:08 7.3M 
[SND]1305 - Garbage - Push It - 2018 - Remaster.mp32024-11-09 10:08 10M 
[SND]1306 - Bon Iver - Skinny Love.mp32024-11-09 10:08 10M 
[SND]1307 - Maximo Park - Our Velocity.mp32024-11-09 10:08 8.0M 
[SND]1308 - The Who - Won't Get Fooled Again - Original Album Version.mp32024-11-09 10:08 20M 
[SND]1309 - Live - All Over You.mp32024-11-09 10:08 9.8M 
[SND]1310 - Vampire Weekend - This Life.mp32024-11-09 10:08 10M 
[SND]1311 - The Jesus and Mary Chain - Just Like Honey.mp32024-11-09 10:08 7.6M 
[SND]1312 - Beck - Where It's At.mp32024-11-09 10:08 14M 
[SND]1313 - The Darkness - I Believe in a Thing Called Love.mp32024-11-09 10:08 8.9M 
[SND]1314 - girl in red - Rue.mp32024-11-09 10:08 9.2M 
[SND]1315 - The Jam - Town Called Malice.mp32024-11-09 10:08 7.4M 
[SND]1316 - Whale - Hobo Humpin' Slobo Babe.mp32024-11-09 10:08 9.7M 
[SND]1317 - The Streets - Fit but You Know It.mp32024-11-09 10:08 10M 
[SND]1318 - Bring Me The Horizon - Follow You.mp32024-11-09 10:08 8.8M 
[SND]1319 - Death Cab for Cutie - I Will Follow You into the Dark.mp32024-11-09 10:08 7.7M 
[SND]1320 - Red Hot Chili Peppers - Suck My Kiss.mp32024-11-09 10:08 9.1M 
[SND]1321 - Motorpsycho - Hey, Jane.mp32024-11-09 10:08 12M 
[SND]1322 - Son Mieux - Nothing.mp32024-11-09 10:08 8.7M 
[SND]1323 - Muse - Sing for Absolution.mp32024-11-09 10:08 12M 
[SND]1324 - Crowded House - Into Temptation.mp32024-11-09 10:08 11M 
[SND]1325 - Supergrass - Alright.mp32024-11-09 10:08 7.8M 
[SND]1326 - Arctic Monkeys - Don't Sit Down 'Cause I've Moved Your Chair.mp32024-11-09 10:08 7.0M 
[SND]1327 - Blondie - Hanging On The Telephone.mp32024-11-09 10:08 6.2M 
[SND]1328 - The Killers - Spaceman.mp32024-11-09 10:08 12M 
[SND]1329 - The Offspring - Gotta Get Away.mp32024-11-09 10:08 9.6M 
[SND]1330 - Jimi Hendrix - The Wind Cries Mary.mp32024-11-09 10:08 8.3M 
[SND]1331 - WIES - Bandje.mp32024-11-09 10:08 3.2M 
[SND]1332 - Travis - Why Does It Always Rain On Me.mp32024-11-09 10:08 11M 
[SND]1333 - P.O.D. - Alive - Chris Lord-Alge Mix.mp32024-11-09 10:08 8.6M 
[SND]1334 - The Cardigans - Lovefool.mp32024-11-09 10:08 8.2M 
[SND]1335 - N.E.R.D - Lapdance.mp32024-11-09 10:08 8.9M 
[SND]1336 - Green Day - Minority.mp32024-11-09 10:08 7.0M 
[SND]1337 - The Ting Tings - Shut Up and Let Me Go.mp32024-11-09 10:08 6.8M 
[SND]1338 - Neil Young - Heart of Gold - 2009 Remaster.mp32024-11-09 10:08 7.8M 
[SND]1339 - Queen's Pleasure - Sitter.mp32024-11-09 10:08 7.4M 
[SND]1340 - Blur - The Universal - 2012 Remaster.mp32024-11-09 10:08 9.8M 
[SND]1341 - Nirvana - Lounge Act.mp32024-11-09 10:08 6.6M 
[SND]1342 - Snow Patrol - Shut Your Eyes.mp32024-11-09 10:08 8.3M 
[SND]1343 - Jane's Addiction - Been Caught Stealing.mp32024-11-09 10:08 9.2M 
[SND]1344 - Biffy Clyro - Animal Style.mp32024-11-09 10:08 8.1M 
[SND]1345 - The Rolling Stones - Brown Sugar - Remastered 2009.mp32024-11-09 10:08 9.2M 
[SND]1346 - Sea Girls - Lonely.mp32024-11-09 10:08 8.2M 
[SND]1347 - Fastball - The Way.mp32024-11-09 10:08 11M 
[SND]1348 - Pearl Jam - The Fixer.mp32024-11-09 10:08 7.6M 
[SND]1349 - Alanis Morissette - You Learn - 2015 Remaster.mp32024-11-09 10:08 9.9M 
[SND]1350 - Foals - Exits.mp32024-11-09 10:08 15M 
[SND]1351 - LL COOL J - Mama Said Knock You Out.mp32024-11-09 10:08 12M 
[SND]1352 - Kings of Leon - Fans.mp32024-11-09 10:08 8.6M 
[SND]1353 - New Radicals - You Get What You Give.mp32024-11-09 10:08 12M 
[SND]1354 - Yeasayer - O.N.E..mp32024-11-09 10:08 13M 
[SND]1355 - Nina Hagen Band - Unbeschreiblich Weiblich.mp32024-11-09 10:08 4.8M 
[SND]1356 - Dave Matthews Band - The Space Between.mp32024-11-09 10:08 9.6M 
[SND]1357 - Faith No More - Easy.mp32024-11-09 10:08 7.7M 
[SND]1358 - Jake Bugg - Lightning Bolt.mp32024-11-09 10:08 6.1M 
[SND]1359 - Manic Street Preachers - Kevin Carter - Remastered Version.mp32024-11-09 10:08 8.0M 
[SND]1360 - Arcade Fire - Keep the Car Running.mp32024-11-09 10:08 8.4M 
[SND]1361 - Candlebox - Far Behind.mp32024-11-09 10:08 12M 
[SND]1362 - Ramones - Rock 'n' Roll High School - 2002 Remaster.mp32024-11-09 10:08 5.9M 
[SND]1363 - Of Monsters and Men - Little Talks.mp32024-11-09 10:08 11M 
[SND]1364 - Foo Fighters - This Is a Call.mp32024-11-09 10:08 9.6M 
[SND]1365 - The Zutons - Valerie.mp32024-11-09 10:08 9.9M 
[SND]1366 - Sylvie Kreusch - Let It All Burn.mp32024-11-09 10:08 8.7M 
[SND]1367 - The Smiths - Girlfriend in a Coma - 2011 Remaster.mp32024-11-09 10:08 5.2M 
[SND]1368 - Good Charlotte - Lifestyles of the Rich & Famous.mp32024-11-09 10:08 7.9M 
[SND]1369 - Toad The Wet Sprocket - Walk On the Ocean.mp32024-11-09 10:08 7.9M 
[SND]1370 - Orange Skyline - Shine On.mp32024-11-09 10:08 9.2M 
[SND]1371 - Bob Dylan - Like a Rolling Stone.mp32024-11-09 10:08 15M 
[SND]1372 - The White Stripes - Fell In Love With a Girl.mp32024-11-09 10:08 4.7M 
[SND]1373 - Belle and Sebastian - The Boy With the Arab Strap.mp32024-11-09 10:08 13M 
[SND]1374 - Tröckener Kecks - Met Hart En Ziel.mp32024-11-09 10:08 9.3M 
[SND]1375 - OK Go - Here It Goes Again.mp32024-11-09 10:08 8.0M 
[SND]1376 - The Naked And Famous - Punching In A Dream.mp32024-11-09 10:08 9.9M 
[SND]1377 - Tubeway Army - Are 'Friends' Electric - 1998 Remaster.mp32024-11-09 10:08 13M 
[SND]1378 - Caesars - Jerk It Out.mp32024-11-09 10:08 8.4M 
[SND]1379 - Tame Impala - 'Cause I'm A Man.mp32024-11-09 10:08 10M 
[SND]1380 - R.E.M. - What’s The Frequency, Kenneth - Remastered 2013.mp32024-11-09 10:08 9.7M 
[SND]1381 - Sublime - What I Got.mp32024-11-09 10:08 7.4M 
[SND]1382 - Sports Team - The Drop.mp32024-11-09 10:08 7.0M 
[SND]1383 - Sinéad O'Connor - Nothing Compares 2 U.mp32024-11-09 10:08 11M 
[SND]1384 - Panic! At The Disco - But It's Better If You Do.mp32024-11-09 10:08 8.5M 
[SND]1385 - Oasis - Some Might Say - Remastered.mp32024-11-09 10:08 13M 
[SND]1386 - Hoobastank - The Reason.mp32024-11-09 10:08 9.1M 
[SND]1387 - Depeche Mode - People Are People.mp32024-11-09 10:08 9.6M 
[SND]1388 - Marcy Playground - Sex & Candy.mp32024-11-09 10:08 7.5M 
[SND]1389 - Royal Blood - I Only Lie When I Love You.mp32024-11-09 10:08 6.5M 
[SND]1390 - Phoenix - 1901.mp32024-11-09 10:08 7.6M 
[SND]1391 - The Clash - Should I Stay or Should I Go - Remastered.mp32024-11-09 10:08 8.1M 
[SND]1392 - Keane - Is It Any Wonder.mp32024-11-09 10:08 7.4M 
[SND]1393 - UNKLE - Rabbit In Your Headlights.mp32024-11-09 10:08 15M 
[SND]1394 - U2 - Pride (In The Name Of Love) - Remastered 2009.mp32024-11-09 10:08 9.2M 
[SND]1395 - Personal Trainer - The Lazer.mp32024-11-09 10:08 9.0M 
[SND]1396 - Stereophonics - Have A Nice Day.mp32024-11-09 10:08 8.7M 
[SND]1397 - Björk - Venus As A Boy.mp32024-11-09 10:08 11M 
[SND]1398 - The Vaccines - If You Wanna.mp32024-11-09 10:08 6.9M 
[SND]1399 - Tom Petty - A Face In The Crowd.mp32024-11-09 10:08 9.6M 
[SND]1400 - Muse - Undisclosed Desires.mp32024-11-09 10:08 9.8M 
[SND]1401 - Garbage - Supervixen - 2015 - Remaster.mp32024-11-09 10:08 9.7M 
[SND]1402 - Gorillaz - The Valley of The Pagans (feat. Beck).mp32024-11-09 10:08 7.9M 
[SND]1403 - Puddle Of Mudd - She Hates Me.mp32024-11-09 10:08 8.8M 
[SND]1404 - The Beatles - Lucy In The Sky With Diamonds - Remastered 2009.mp32024-11-09 10:08 9.0M 
[SND]1405 - Circa Waves - T-Shirt Weather.mp32024-11-09 10:08 7.6M 
[SND]1406 - Deacon Blue - Your Town.mp32024-11-09 10:08 13M 
[SND]1407 - Yard Act - The Overload.mp32024-11-09 10:08 7.6M 
[SND]1408 - Red Hot Chili Peppers - Around the World.mp32024-11-09 10:08 10M 
[SND]1409 - Primal Scream - Loaded - Andy Weatherall Mix.mp32024-11-09 10:08 16M 
[SND]1410 - Manic Street Preachers - Your Love Alone Is Not Enough (feat. Nina Persson).mp32024-11-09 10:08 9.7M 
[SND]1411 - ZZ Top - Sharp Dressed Man - 2008 Remaster.mp32024-11-09 10:08 10M 
[SND]1412 - The Strokes - 1251.mp32024-11-09 10:08 6.6M 
[SND]1413 - Monaco - What Do You Want From Me.mp32024-11-09 10:08 10M 
[SND]1414 - Kings of Leon - Radioactive.mp32024-11-09 10:08 8.7M 
[SND]1415 - Wir sind Helden - Wenn es passiert.mp32024-11-09 10:08 8.5M 
[SND]1416 - Lenny Kravitz - Mr. Cab Driver.mp32024-11-09 10:08 9.4M 
[SND]1417 - Thelonious Monster - Body And Soul.mp32024-11-09 10:08 9.5M 
[SND]1418 - Indian Askin - On and On.mp32024-11-09 10:08 8.9M 
[SND]1419 - XTC - Senses Working Overtime - Remastered 2001.mp32024-11-09 10:08 12M 
[SND]1420 - Lifehouse - Hanging By A Moment.mp32024-11-09 10:08 9.3M 
[SND]1421 - Ocean Colour Scene - The Day We Caught The Train.mp32024-11-09 10:08 8.1M 
[SND]1422 - Florence + The Machine - What Kind Of Man.mp32024-11-09 10:08 8.6M 
[SND]1423 - Van Halen - Why Can't This Be Love.mp32024-11-09 10:08 9.7M 
[SND]1424 - The Kooks - Ooh La.mp32024-11-09 10:08 8.4M 
[SND]1425 - Third Eye Blind - Semi-Charmed Life.mp32024-11-09 10:08 11M 
[SND]1426 - The Who - Pinball Wizard.mp32024-11-09 10:08 7.7M 
[SND]1427 - Bombay Bicycle Club - Eat, Sleep, Wake (Nothing But You).mp32024-11-09 10:08 8.9M 
[SND]1428 - Jet - Are You Gonna Be My Girl.mp32024-11-09 10:08 8.6M 
[SND]1429 - Heather Nova - Truth And Bone.mp32024-11-09 10:08 12M 
[SND]1430 - Imagine Dragons - It's Time.mp32024-11-09 10:08 9.6M 
[SND]1431 - The Stone Roses - Love Spreads.mp32024-11-09 10:08 14M 
[SND]1432 - LCD Soundsystem - Daft Punk Is Playing at My House.mp32024-11-09 10:08 12M 
[SND]1433 - Radiohead - My Iron Lung.mp32024-11-09 10:08 11M 
[SND]1434 - beabadoobee - Care.mp32024-11-09 10:08 8.3M 
[SND]1435 - The Police - King Of Pain.mp32024-11-09 10:08 12M 
[SND]1436 - Franz Ferdinand - Michael.mp32024-11-09 10:08 7.9M 
[SND]1437 - The Cure - Close To Me.mp32024-11-09 10:08 8.5M 
[SND]1438 - Mumford & Sons - Roll Away Your Stone.mp32024-11-09 10:08 11M 
[SND]1439 - Run–D.M.C. - Walk This Way (feat. Aerosmith).mp32024-11-09 10:08 13M 
[SND]1440 - Editors - Blood.mp32024-11-09 10:08 8.2M 
[SND]1441 - Oasis - Acquiesce - Remastered.mp32024-11-09 10:08 11M 
[SND]1442 - Lou Reed - Walk On the Wild Side.mp32024-11-09 10:08 10M 
[SND]1443 - The Killers - My Own Soul’s Warning.mp32024-11-09 10:08 11M 
[SND]1444 - Moby - Natural Blues.mp32024-11-09 10:08 11M 
[SND]1445 - The Libertines - Can't Stand Me Now.mp32024-11-09 10:08 8.6M 
[SND]1446 - Massive Attack - Safe From Harm - 2012 MixMaster.mp32024-11-09 10:08 13M 
[SND]1447 - Hozier - Jackie And Wilson.mp32024-11-09 10:08 9.5M 
[SND]1448 - Jamiroquai - Deeper Underground - Full Version.mp32024-11-09 10:08 12M 
[SND]1449 - Weezer - Beverly Hills.mp32024-11-09 10:08 8.1M 
[SND]1450 - The Clash - Rock the Casbah - Remastered.mp32024-11-09 10:08 9.4M 
[SND]1451 - Two Door Cinema Club - Wonderful Life.mp32024-11-09 10:08 8.4M 
[SND]1452 - No Doubt - Ex-Girlfriend.mp32024-11-09 10:08 9.1M 
[SND]1453 - Jesus Jones - Right Here Right Now.mp32024-11-09 10:08 8.2M 
[SND]1454 - Supergrass - Moving.mp32024-11-09 10:08 11M 
[SND]1455 - Queens of the Stone Age - Feet Don't Fail Me.mp32024-11-09 10:08 14M 
[SND]1456 - Suede - Saturday Night.mp32024-11-09 10:08 11M 
[SND]1457 - Peter Bjorn and John - Young Folks.mp32024-11-09 10:08 11M 
[SND]1458 - Throwing Muses - Bright Yellow Gun.mp32024-11-09 10:08 9.6M 
[SND]1459 - Happy Mondays - Step On - 2007 Remaster.mp32024-11-09 10:08 13M 
[SND]1460 - YUNGBLUD - fleabag.mp32024-11-09 10:08 7.0M 
[SND]1461 - Blur - Country House - 2012 Remaster.mp32024-11-09 10:08 9.8M 
[SND]1462 - Starsailor - Tell Me It's Not Over.mp32024-11-09 10:08 8.2M 
[SND]1463 - The Jam - Going Underground.mp32024-11-09 10:08 7.4M 
[SND]1464 - Feist - 1234.mp32024-11-09 10:08 7.4M 
[SND]1465 - Foals - 2001.mp32024-11-09 10:08 10M 
[SND]1466 - Live - Run To The Water.mp32024-11-09 10:08 11M 
[SND]1467 - Smash Mouth - All Star.mp32024-11-09 10:08 8.3M 
[SND]1468 - Tom Petty and the Heartbreakers - Refugee.mp32024-11-09 10:08 8.2M 
[SND]1469 - Phoenix - If I Ever Feel Better.mp32024-11-09 10:08 11M 
[SND]1470 - Vance Joy - Riptide.mp32024-11-09 10:08 8.5M 
[SND]1471 - Jimi Hendrix - Hey Joe.mp32024-11-09 10:08 8.6M 
[SND]1472 - The Cardigans - Carnival.mp32024-11-09 10:08 8.9M 
[SND]1473 - The White Stripes - Hotel Yorba.mp32024-11-09 10:08 5.4M 
[SND]1474 - Portugal. The Man - Feel It Still.mp32024-11-09 10:08 7.1M 
[SND]1475 - Simple Minds - Sanctify Yourself.mp32024-11-09 10:08 12M 
[SND]1476 - Snow Patrol - Take Back The City.mp32024-11-09 10:08 11M 
[SND]1477 - MC 900 Ft. Jesus - The City Sleeps.mp32024-11-09 10:08 13M 
[SND]1478 - Kings of Leon - The Bandit.mp32024-11-09 10:08 9.7M 
[SND]1479 - Soul Asylum - Runaway Train (2022 Remaster).mp32024-11-09 10:08 11M 
[SND]1480 - The Von Bondies - C'mon C'mon.mp32024-11-09 10:08 6.0M 
[SND]1481 - David Bowie - Changes - 2015 Remaster.mp32024-11-09 10:08 9.2M 
[SND]1482 - Beck - Dreams - Colors Mix.mp32024-11-09 10:08 11M 
[SND]1483 - Lenny Kravitz - American Woman.mp32024-11-09 10:08 11M 
[SND]1484 - Razorlight - America.mp32024-11-09 10:08 9.7M 
[SND]1485 - Ugly Kid Joe - Everything About You.mp32024-11-09 10:08 11M 
[SND]1486 - World Party - Way Down Now.mp32024-11-09 10:08 9.6M 
[SND]1487 - Modest Mouse - Float On.mp32024-11-09 10:08 8.2M 
[SND]1488 - Republica - Ready to Go.mp32024-11-09 10:08 13M 
[SND]1489 - The Velvet Underground - Rock & Roll - Full Length Version; 2015 Remaster.mp32024-11-09 10:08 11M 
[SND]1490 - The Vaccines - Alone Star.mp32024-11-09 10:08 7.7M 
[SND]1491 - Primal Scream - Rocks.mp32024-11-09 10:08 9.1M 
[SND]1492 - Maxim - Carmen Queasy.mp32024-11-09 10:08 10M 
[SND]1493 - Vampire Weekend - Holiday.mp32024-11-09 10:08 5.9M 
[SND]1494 - Red Hot Chili Peppers - Higher Ground - Remastered 2003.mp32024-11-09 10:08 8.2M 
[SND]1495 - The Ting Tings - Great DJ.mp32024-11-09 10:08 8.0M 
[SND]1496 - Muse - Sunburn.mp32024-11-09 10:08 9.5M 
[SND]1497 - Tame Impala - It Might Be Time.mp32024-11-09 10:08 11M 
[TXT]VA - Kink1500 (2024) (1001-1500).html2024-11-09 10:08 126KMp3tag - File Overview
[IMG]VA - Kink1500 (2024) (1001-1500).jpg2024-11-09 11:34 342K 
[   ]album.nfo2026-04-19 17:06 82K 

Apache/2.4.52 (Ubuntu) Server at library-m.defcomtech.com Port 443